Wind_Speed
50 51 52 53 52 51 50 50 51 50 49 47 46 44 42 41 39 36 34 34 34 37 38 37 37 34 32 30 27 27 30 34 36 34 33 36 36 33 27 24 27 28 29 30 32 33 33 32 32 33 33 32 29 29 29 27 24 21 17 15 17 20 21 21 20 20 20 19 18 18 19 20 22 22 23 24 24 24 23 22 23 23 23 26 25 18
51 52 52 50 48 47 47 47 48 48 47 47 47 44 41 40 38 34 34 31 30 36 38 35 34 34 33 30 26 27 31 33 35 34 34 35 36 34 27 22 25 28 28 29 31 33 33 31 31 33 34 34 31 27 27 27 24 20 16 16 19 20 20 19 20 21 21 20 19 19 20 22 23 23 22 22 22 22 22 21 22 23 24 27 25 19
53 52 50 47 46 45 45 46 48 47 47 48 47 44 41 39 36 35 33 29 28 34 37 35 34 33 31 28 26 28 32 33 34 33 33 34 34 33 29 24 25 28 28 29 30 31 30 28 30 32 32 33 30 24 24 26 24 20 18 19 21 20 19 20 21 21 21 20 20 20 21 22 23 22 21 21 20 21 21 22 22 23 24 25 24 22
52 50 47 46 45 45 46 47 48 48 48 48 46 44 42 40 37 35 32 28 28 32 34 32 33 33 29 26 27 31 33 33 34 33 32 32 32 31 29 26 24 26 28 29 29 28 26 27 29 30 29 30 30 25 24 24 22 21 21 22 21 20 20 21 22 22 21 20 19 19 19 21 22 21 20 20 20 21 22 23 23 24 24 23 21 19
49 46 43 43 43 44 45 46 47 47 47 47 45 44 42 39 38 33 28 27 29 31 32 30 31 33 31 26 27 33 35 35 35 35 33 31 30 31 29 24 22 23 26 27 27 25 24 25 26 27 27 28 29 27 24 23 23 22 23 23 22 23 23 23 23 22 21 20 19 19 19 21 21 20 19 19 20 21 23 23 23 24 22 20 19 17
47 44 41 41 42 42 44 45 46 46 46 45 44 44 41 37 35 29 25 26 29 31 32 31 30 32 33 27 28 35 36 36 36 34 32 30 31 33 29 23 20 20 23 24 25 24 24 25 25 26 25 24 27 28 26 26 28 27 26 24 24 25 25 25 25 23 22 21 20 20 20 21 21 20 19 19 20 21 22 22 22 22 20 19 19 17
48 45 42 41 42 42 43 44 44 45 46 46 44 41 38 35 33 27 24 25 27 28 30 30 30 31 33 29 29 37 39 37 36 34 33 32 33 34 29 23 20 20 22 24 24 23 23 24 25 27 28 27 28 30 30 29 31 31 28 25 24 25 26 27 26 25 24 23 23 22 21 22 22 21 19 18 18 19 20 22 22 22 19 17 16 14
47 46 44 43 42 42 44 44 44 46 46 44 40 38 36 34 34 30 28 28 26 24 29 32 33 32 33 32 31 37 39 38 37 35 34 35 35 34 32 26 22 23 25 24 23 23 23 23 24 27 29 29 31 33 34 33 31 29 27 25 24 25 26 26 26 26 25 24 24 23 22 22 22 21 21 20 19 18 19 21 22 20 19 17 14 14
47 47 46 44 43 44 44 43 43 44 44 40 37 37 36 34 34 32 33 31 27 24 28 34 38 37 35 33 32 36 37 36 37 35 35 35 34 34 32 25 22 25 26 24 23 22 22 22 23 25 27 30 33 34 34 33 29 26 25 25 26 26 26 26 26 25 23 23 22 22 22 23 23 22 22 22 21 21 20 19 20 20 19 17 16 18
47 46 44 43 43 43 41 39 40 41 42 38 36 37 36 34 33 33 37 34 30 32 33 36 41 43 38 32 31 37 38 36 35 33 33 33 33 33 29 22 20 24 25 24 23 21 22 23 23 24 27 30 31 30 31 30 27 26 26 24 24 25 25 26 26 24 21 20 19 19 20 23 24 23 22 21 21 21 19 18 19 19 18 18 18 18
45 43 43 43 42 40 37 36 37 39 39 35 35 38 38 36 33 34 40 36 33 39 39 37 39 40 37 32 31 37 38 34 29 26 27 29 30 30 25 19 19 22 24 24 23 22 22 23 23 25 27 29 28 29 31 30 26 25 25 22 21 23 24 25 25 22 18 16 15 16 19 23 25 24 22 20 20 20 19 17 16 15 16 17 18 17
44 43 43 43 42 38 36 35 36 37 36 35 37 41 41 38 35 37 42 41 37 39 37 33 33 33 35 33 30 34 36 32 25 21 23 25 25 24 23 20 20 21 22 24 24 24 23 23 24 26 27 27 26 26 29 30 27 25 23 21 19 20 21 21 20 17 14 13 14 15 18 22 24 24 22 21 21 21 18 15 12 14 17 17 16 16
47 45 43 43 42 39 38 37 36 37 37 38 41 44 43 41 42 43 46 46 42 37 34 32 31 31 34 31 24 29 36 32 23 19 22 23 19 18 20 20 21 21 22 23 23 24 24 23 25 26 27 26 24 23 26 29 29 26 23 22 19 17 17 16 15 14 14 14 15 17 18 20 21 21 21 21 20 18 15 13 14 17 18 17 17 18
48 46 43 43 42 41 40 39 40 41 42 43 44 45 46 47 48 48 49 48 43 38 36 32 31 35 37 28 20 27 33 30 22 17 20 22 18 17 17 19 21 22 21 22 22 23 24 24 24 23 23 25 25 25 25 27 29 28 24 20 18 15 14 14 15 15 16 16 17 18 18 18 18 17 16 16 15 15 15 16 17 17 18 18 18 18
48 47 46 45 44 43 41 40 40 40 42 44 44 43 46 50 50 50 49 46 41 41 40 34 34 40 39 28 19 21 28 28 24 20 21 25 25 22 18 19 22 21 20 20 20 20 21 22 23 21 22 24 26 26 26 26 27 28 25 20 16 14 13 14 15 16 17 17 18 18 18 17 16 15 15 14 15 16 17 17 17 17 18 19 19 19
47 46 45 44 44 42 40 39 39 38 40 41 40 40 45 49 47 47 48 43 39 41 43 41 39 36 32 26 18 16 22 26 27 25 24 27 31 29 23 20 20 19 19 19 17 16 16 19 21 21 23 25 26 27 27 26 25 26 24 20 16 14 14 15 16 17 17 17 18 17 17 16 16 16 16 17 18 18 17 17 17 17 19 20 20 20
44 43 42 40 40 38 36 36 36 37 39 39 41 45 45 41 37 41 45 44 41 39 41 44 40 31 28 26 19 17 21 26 29 29 27 28 31 30 25 21 19 18 18 17 15 15 17 19 20 21 22 23 24 24 24 23 24 25 21 16 13 13 14 15 16 17 18 17 17 16 16 16 16 17 18 18 18 17 17 18 18 19 20 20 20 20
42 39 36 35 37 37 33 31 31 34 37 39 43 45 42 36 33 37 40 44 45 41 39 41 37 29 29 28 24 23 26 30 30 30 30 32 30 23 19 21 20 18 17 16 15 16 17 17 19 20 22 22 21 21 20 21 22 20 16 12 12 13 13 15 16 17 17 17 16 15 15 16 17 18 18 17 17 17 18 19 20 20 21 21 20 20
38 30 27 31 35 36 34 31 31 35 38 39 41 42 42 40 37 34 34 41 48 46 39 38 36 31 28 29 29 29 32 33 31 30 35 38 31 19 14 16 18 17 16 16 15 15 16 16 16 17 19 18 17 17 18 18 18 15 13 12 13 14 15 15 15 16 16 16 16 15 15 16 18 19 17 16 16 17 19 20 21 21 21 21 21 21
35 28 27 32 33 34 37 36 34 37 40 39 39 43 45 42 37 32 31 33 42 47 43 36 36 36 31 28 30 31 34 36 34 35 37 37 32 23 15 13 15 16 16 16 17 16 16 15 15 15 14 13 14 16 16 15 14 13 12 13 14 15 16 16 15 16 16 16 16 15 16 17 18 17 16 16 17 18 20 21 22 22 22 22 22 22
35 33 32 34 35 37 40 40 38 36 39 42 42 47 49 44 36 33 32 27 28 39 45 39 35 36 35 32 30 30 32 36 37 38 38 36 34 29 23 19 18 18 17 17 18 18 17 16 16 15 13 12 13 15 15 13 13 13 13 13 14 16 17 16 16 16 16 16 16 16 16 16 16 16 16 17 18 19 21 22 22 23 23 23 23 23
35 36 34 32 35 40 38 35 37 36 37 41 45 48 50 47 40 36 34 30 25 27 36 41 38 33 31 32 31 31 32 35 36 37 36 35 33 30 27 24 23 23 21 19 20 19 18 18 17 15 13 13 12 11 11 12 13 14 13 12 13 16 17 17 17 16 16 16 17 18 17 16 16 16 17 18 20 21 22 23 24 24 24 24 24 24
34 36 36 29 28 34 31 26 30 33 32 36 43 45 44 46 45 41 35 30 26 23 22 28 34 33 30 29 29 31 33 34 36 37 37 36 33 31 29 27 24 23 22 21 21 21 19 19 18 16 14 14 12 10 11 12 13 14 13 12 14 17 18 18 18 17 16 17 18 19 19 19 18 19 20 21 22 23 24 25 25 25 25 25 25 26
32 32 35 27 19 22 26 26 27 30 29 32 42 44 41 43 47 42 33 24 21 20 15 16 23 31 33 29 28 30 31 33 36 38 39 39 37 34 34 31 24 21 21 22 23 22 21 20 18 17 15 15 13 11 11 12 13 14 14 14 16 18 19 19 18 18 18 19 20 21 22 22 21 22 23 24 24 25 26 27 27 26 26 27 27 27
31 27 32 30 25 25 29 35 37 37 34 33 39 43 40 39 41 41 34 24 19 20 19 19 20 25 32 32 29 29 31 33 34 33 34 35 34 33 34 33 28 25 24 24 24 23 22 21 20 17 17 16 14 13 13 14 15 14 15 16 17 19 20 19 18 19 19 20 20 21 23 23 23 24 26 26 27 27 28 29 28 28 27 27 27 27
29 26 32 33 31 31 34 41 46 44 41 38 41 42 38 32 32 36 37 30 24 24 23 24 21 22 29 35 34 32 32 32 30 29 30 30 30 30 31 30 28 28 27 23 22 22 22 21 20 19 19 18 16 14 15 16 15 14 15 16 18 19 19 18 18 19 19 20 21 22 23 23 24 26 27 28 28 28 28 28 28 28 27 27 27 27
28 27 33 32 29 28 29 34 40 42 41 40 42 44 39 32 27 29 35 35 29 25 25 27 25 22 24 30 35 36 35 35 33 31 29 27 25 24 24 24 25 26 27 26 24 23 22 22 21 21 21 19 17 17 17 17 15 14 15 17 19 20 19 18 17 18 19 20 21 22 24 24 26 28 29 28 28 28 29 28 27 26 26 26 27 27
29 28 33 30 26 24 23 23 27 34 38 38 40 44 40 35 30 28 31 35 33 29 26 28 30 27 23 25 30 33 33 34 34 34 31 27 22 18 17 18 19 22 26 27 27 26 24 24 23 23 23 21 19 19 18 16 15 15 17 19 20 21 20 18 17 18 19 19 20 21 23 25 27 29 29 28 28 29 30 29 27 26 26 26 27 28
31 29 30 28 24 22 20 18 20 26 34 36 37 41 40 37 35 31 30 31 32 31 28 28 30 30 28 26 25 26 26 25 26 28 30 31 28 24 21 19 19 21 24 26 27 27 26 26 25 25 24 23 21 20 19 16 16 18 20 21 22 21 20 19 19 20 21 20 20 21 22 25 27 28 27 27 27 27 27 27 27 26 25 26 27 29
33 29 27 25 24 22 17 15 15 18 27 36 35 32 34 38 38 35 34 33 32 32 31 31 31 31 32 31 27 26 25 22 21 20 20 24 27 26 25 24 24 24 25 26 27 27 27 26 25 24 24 24 23 21 19 18 18 19 21 23 23 20 20 20 21 23 23 23 22 23 24 25 27 29 29 28 27 26 24 24 24 25 26 27 29 30
34 30 26 25 25 25 21 16 16 14 18 31 36 31 29 35 39 36 35 35 35 34 34 35 33 33 36 36 32 29 27 24 22 19 16 18 20 21 22 23 24 25 26 28 28 27 27 27 25 25 25 24 22 20 20 20 20 20 22 23 22 21 21 22 22 23 23 23 23 24 26 26 27 29 30 29 27 25 25 25 25 26 28 29 30 30
33 31 30 28 26 28 27 23 22 19 16 23 32 33 30 32 37 38 37 36 38 36 34 35 35 35 37 37 35 32 29 26 25 23 21 19 19 19 19 20 21 23 26 27 27 27 27 26 26 26 25 23 21 20 21 22 21 21 22 24 24 24 23 22 22 21 20 21 22 23 24 24 25 26 27 27 26 25 25 26 27 29 30 29 29 29
33 31 30 29 29 29 30 28 28 26 24 23 27 30 32 31 35 41 41 38 38 38 35 35 36 36 35 35 33 31 29 28 27 26 26 25 22 21 20 20 21 22 23 24 25 26 26 26 27 27 25 22 21 21 22 22 22 22 24 25 25 25 23 22 20 18 17 17 18 17 17 17 18 19 21 23 24 24 25 26 27 28 28 28 29 30
35 31 28 29 31 31 32 32 31 30 30 27 24 28 36 37 35 41 44 41 39 38 36 36 38 36 35 33 30 26 25 25 24 24 26 26 24 22 21 20 20 22 23 23 23 24 25 26 27 27 25 23 22 22 22 22 23 25 25 25 25 25 23 20 18 16 14 14 13 13 13 14 14 16 18 20 22 24 26 26 26 27 28 29 31 33
35 31 28 29 32 33 34 34 33 32 31 28 25 28 36 38 36 38 42 43 42 38 35 38 39 37 37 37 33 28 23 21 22 22 23 24 23 23 22 21 21 22 23 23 23 24 25 26 27 26 26 25 24 23 22 23 25 26 26 25 24 23 20 18 17 16 15 13 13 14 15 15 15 16 17 19 21 23 25 26 27 29 30 32 34 35
32 31 29 28 30 33 36 36 35 33 31 29 26 26 30 33 35 36 37 40 42 40 37 38 41 41 42 42 40 35 28 24 23 21 19 20 21 22 22 22 21 21 22 24 24 25 25 25 26 26 26 26 24 23 24 25 26 25 23 22 21 20 19 19 18 16 14 15 16 17 17 17 16 17 18 19 21 23 25 27 28 30 31 32 33 33
31 31 30 27 27 32 37 37 34 32 30 27 24 24 25 28 32 34 33 35 40 41 39 40 41 43 43 42 41 39 35 32 30 26 20 17 18 19 19 20 20 21 23 25 26 26 26 26 26 26 26 25 25 24 24 25 26 23 21 19 20 19 17 17 16 15 15 18 19 19 18 17 17 18 19 20 22 24 26 27 28 29 30 31 31 32
30 31 31 28 27 32 37 35 32 30 28 26 24 24 23 23 27 31 31 33 36 37 37 41 43 44 44 43 40 38 36 34 32 29 25 20 18 19 20 21 21 20 21 23 25 26 26 25 25 25 26 25 25 25 25 26 25 21 17 16 17 16 14 13 15 17 18 19 19 18 18 17 18 19 20 22 23 24 26 27 28 29 29 30 32 33
27 29 32 31 30 32 35 34 32 31 28 25 25 24 22 22 25 29 30 32 35 35 35 39 43 43 43 42 40 37 35 32 29 28 26 23 22 22 23 24 24 24 22 22 24 25 25 25 25 25 25 25 25 25 25 24 23 19 16 15 15 15 14 15 17 18 18 18 17 17 18 18 19 20 21 23 24 25 26 27 28 28 30 31 33 33
30 30 31 31 32 33 34 33 33 32 29 26 25 24 23 24 26 29 31 33 36 38 39 40 41 40 38 35 35 35 34 30 27 25 25 25 25 27 27 25 23 25 25 24 24 25 25 25 25 25 24 24 24 24 24 23 20 19 17 17 17 17 16 15 15 16 16 16 16 17 18 19 20 21 22 24 24 25 26 27 28 29 30 31 31 31
31 30 29 29 30 30 32 33 33 33 31 28 25 23 23 24 26 29 31 31 33 38 40 39 37 35 33 31 32 33 32 31 29 29 29 29 28 29 29 26 22 23 25 26 25 25 26 26 25 24 24 24 23 22 21 20 18 17 17 17 18 17 15 14 14 14 14 15 16 17 18 20 20 21 22 23 23 24 25 26 27 28 28 28 27 26
28 28 28 29 29 29 30 32 33 32 30 27 25 24 23 24 26 28 28 28 31 34 35 33 31 29 27 27 29 30 31 32 32 32 31 30 29 29 30 27 24 22 23 25 26 26 26 26 25 24 24 23 22 20 19 19 18 18 18 18 18 17 16 15 14 14 15 16 17 18 19 19 20 20 20 21 21 22 23 23 24 24 24 24 24 23
25 26 28 29 29 29 28 30 31 30 27 26 25 24 24 24 25 25 25 27 31 32 31 30 28 26 24 23 24 28 31 31 31 31 31 31 30 29 29 28 26 23 22 24 26 26 26 25 25 25 25 23 20 19 19 20 19 19 19 18 18 18 17 16 15 16 17 18 19 19 19 19 19 19 19 19 19 20 21 21 21 21 22 22 23 22
21 24 27 28 27 27 26 27 27 26 24 24 24 24 25 24 23 22 22 25 29 31 32 30 28 27 26 24 23 27 30 29 28 29 31 32 31 30 30 29 26 24 24 26 26 26 25 26 27 27 25 22 21 20 20 20 19 19 20 19 18 18 17 17 17 17 18 19 20 20 19 19 18 18 18 18 19 19 20 20 20 21 21 21 21 21
22 23 24 25 26 26 26 24 23 23 24 24 23 23 23 23 22 21 20 22 27 31 32 31 30 30 29 26 25 25 26 27 27 28 30 32 33 32 31 29 26 26 27 28 26 26 26 27 27 27 25 23 22 22 21 20 20 20 20 19 19 18 17 17 18 19 20 20 20 20 19 19 18 18 18 18 18 19 19 20 20 21 20 20 20 19
22 22 22 24 25 26 25 23 21 22 24 24 23 21 20 20 20 21 20 22 26 28 30 32 33 33 30 27 25 24 23 24 25 26 28 30 31 31 30 28 27 28 29 29 27 26 27 28 28 27 25 24 23 22 21 22 21 21 20 20 19 18 18 18 19 20 21 21 20 20 19 18 18 18 19 19 19 19 20 20 20 20 19 18 18 19
20 21 23 24 24 25 25 24 22 21 22 23 22 21 19 18 19 20 21 22 24 25 27 29 31 31 30 28 25 23 23 24 24 24 26 28 28 28 27 27 27 29 29 29 28 27 28 28 27 26 25 24 23 23 23 23 22 22 21 20 19 18 18 19 20 21 21 21 20 20 19 18 19 20 20 20 20 20 20 20 19 19 18 18 19 20
19 21 23 23 24 25 26 26 25 23 22 21 21 20 19 18 18 19 21 22 23 24 26 27 28 29 29 28 25 22 23 25 24 24 25 26 26 26 26 26 28 29 29 29 28 28 28 27 27 26 25 25 25 25 24 24 23 22 21 20 19 19 19 20 21 21 21 20 19 19 19 19 20 20 20 20 20 20 20 20 19 18 18 19 20 21
19 20 21 22 24 24 24 24 24 25 23 20 18 19 20 19 18 18 19 20 22 24 25 26 28 28 28 27 25 22 22 22 23 23 25 26 26 27 27 27 28 28 28 28 28 28 28 28 27 27 26 26 26 25 25 24 23 22 21 20 20 19 20 20 20 20 19 19 18 18 19 19 20 19 19 20 20 20 20 19 18 18 19 21 22 22
18 19 20 21 21 22 21 21 22 23 23 20 18 18 19 20 20 19 18 19 21 23 24 25 27 27 26 24 23 22 21 21 23 25 26 27 28 29 29 28 28 28 28 28 28 28 28 28 27 27 27 27 27 26 26 25 24 23 22 21 20 20 20 20 19 19 18 17 17 18 19 19 19 19 19 19 20 20 19 18 18 19 21 22 23 23
16 17 18 19 19 20 21 21 22 22 23 22 21 19 18 18 19 20 20 19 20 22 23 23 24 24 24 23 22 21 21 22 23 25 28 30 30 31 31 29 29 29 29 29 29 28 27 27 27 27 28 28 27 27 27 25 24 23 22 21 20 20 20 19 18 18 17 16 17 18 18 18 19 19 20 20 20 20 19 18 19 20 22 23 23 23
Wind_Direction
219 220 222 223 222 221 222 223 225 225 225 227 229 230 230 233 234 234 234 229 230 238 236 234 242 245 240 233 230 236 243 246 246 244 244 248 251 251 249 251 255 254 255 258 258 257 255 251 247 244 237 228 227 231 234 231 225 224 218 217 226 229 234 240 244 249 253 255 259 262 265 266 266 268 272 277 280 282 284 284 282 283 280 278 283 287
219 221 222 223 222 222 222 222 224 224 224 225 226 227 227 229 231 232 234 229 224 237 242 237 237 242 241 233 226 233 238 242 248 247 244 245 250 254 253 252 255 255 256 256 258 256 251 251 253 247 238 230 225 230 236 233 230 228 219 218 227 233 240 246 249 252 254 255 257 259 261 263 265 268 272 277 282 284 286 288 286 282 282 285 284 277
218 221 220 220 220 219 219 220 222 221 221 224 225 225 225 225 226 228 231 224 217 230 241 243 241 240 239 235 226 228 234 237 242 245 244 245 251 259 262 258 251 251 253 255 258 260 255 254 252 246 240 230 224 233 241 238 236 230 222 224 230 238 244 246 249 252 255 256 257 259 261 263 267 269 273 277 282 286 286 285 284 281 283 287 282 269
220 220 218 217 217 216 217 218 221 220 220 222 222 224 225 223 222 222 224 217 209 222 235 241 245 244 240 236 226 223 229 233 236 238 240 245 253 260 265 263 254 249 252 255 260 265 264 259 253 248 245 233 224 230 237 236 235 230 227 229 232 238 242 243 248 253 256 260 262 265 266 268 272 274 276 279 280 281 279 278 280 282 283 286 281 270
221 220 217 217 217 217 217 217 219 220 221 221 220 221 223 223 222 217 215 213 207 217 229 234 243 248 244 237 225 222 227 231 233 236 238 244 252 259 263 264 261 254 251 252 256 261 262 261 258 251 246 239 231 232 234 232 232 234 233 231 232 237 239 242 247 251 256 260 264 267 269 271 275 277 277 278 277 277 276 276 277 279 280 279 277 274
218 217 215 216 217 217 217 217 218 219 219 219 217 219 220 220 220 210 201 205 208 218 226 228 237 246 248 240 221 219 225 229 233 237 240 243 248 253 254 254 258 258 254 254 257 259 258 258 256 247 242 245 242 241 246 242 236 237 236 232 233 237 240 243 246 250 254 258 261 264 267 270 274 277 278 279 277 276 277 277 274 273 273 275 278 277
214 213 212 213 214 214 216 216 216 217 218 217 215 216 217 216 213 201 188 191 200 218 231 235 238 243 250 247 222 216 223 226 231 238 241 243 245 249 248 245 252 259 259 260 260 260 260 256 251 244 242 248 247 245 249 245 235 234 233 230 235 239 242 246 248 251 255 258 260 262 265 269 272 275 280 283 282 280 280 279 274 272 274 279 282 277
211 211 209 210 211 212 214 215 213 215 217 215 211 211 211 210 209 196 179 180 191 219 239 241 240 239 244 247 227 215 221 227 233 240 244 246 248 251 252 251 255 258 258 259 258 256 255 254 251 245 241 242 241 239 241 238 232 234 236 233 236 241 244 248 251 254 256 258 260 261 264 268 272 274 277 282 287 289 286 281 276 275 276 275 272 273
209 209 207 208 210 210 212 213 213 214 215 211 205 206 203 200 207 195 173 178 196 218 233 234 236 236 233 234 229 220 221 228 234 240 246 250 253 256 259 260 257 254 254 255 254 251 248 249 249 246 241 237 234 234 237 237 235 240 244 240 241 244 246 249 253 256 258 259 259 261 265 269 272 274 276 280 287 291 290 280 274 271 269 265 267 277
208 208 207 208 210 211 211 211 212 213 212 207 199 201 197 192 203 195 174 182 203 212 219 225 231 236 232 230 233 229 226 228 234 239 245 251 255 258 261 261 253 249 249 252 253 248 244 245 247 247 244 241 238 239 243 243 242 246 248 248 248 250 252 253 256 260 262 261 259 261 268 272 275 277 279 282 286 291 292 281 269 265 263 268 278 286
206 208 208 208 209 211 211 209 210 212 209 202 196 197 193 188 195 191 180 186 204 210 216 223 230 238 243 243 239 234 231 232 238 243 245 249 253 257 259 254 249 248 247 249 252 248 242 241 243 245 246 243 241 244 244 243 245 249 253 254 253 254 258 260 262 264 262 259 261 266 272 276 278 280 281 282 284 288 291 284 272 267 272 281 288 288
202 206 208 206 206 207 208 207 208 210 205 197 195 195 191 187 187 185 185 191 201 210 217 225 232 239 248 247 236 234 237 236 241 247 245 249 256 258 255 247 244 247 248 248 250 250 246 241 241 243 245 244 245 247 246 245 247 251 254 253 249 250 257 263 264 260 255 258 268 275 276 277 279 280 280 282 285 287 286 285 282 281 284 285 282 279
201 204 206 206 205 204 206 204 202 205 201 195 196 194 186 185 187 185 189 195 201 208 212 218 227 233 243 245 225 225 236 238 243 253 249 251 259 258 251 245 243 245 247 247 249 251 248 242 241 244 245 243 242 243 247 250 250 250 249 247 244 246 253 258 255 247 249 262 274 279 277 278 279 281 282 283 284 283 281 285 287 282 280 278 274 276
200 200 204 206 203 203 205 202 201 202 199 195 198 196 185 183 189 191 193 197 199 203 205 211 223 229 236 241 218 213 229 234 237 247 250 251 255 255 249 243 241 244 247 248 249 250 246 242 242 245 245 242 240 241 246 253 252 247 247 247 246 246 245 245 244 243 250 264 275 280 279 278 279 280 280 278 276 278 282 285 282 276 273 273 274 277
200 199 201 204 202 202 204 203 203 203 201 197 196 197 188 184 192 195 195 198 198 201 205 211 224 228 229 233 225 220 229 230 227 233 241 244 246 247 244 239 238 240 244 246 249 251 246 244 243 243 244 244 245 247 249 255 254 248 249 253 253 249 242 240 242 244 251 263 273 278 279 277 274 272 268 267 277 285 286 282 277 273 273 274 276 277
202 203 202 203 204 201 201 203 201 200 203 199 190 193 192 188 196 201 198 199 200 203 208 212 220 223 221 221 225 231 234 229 225 227 233 239 244 243 242 241 237 235 241 244 246 247 244 242 242 242 246 248 250 252 252 254 254 249 251 254 252 251 249 244 244 248 254 264 271 275 275 273 271 270 269 274 284 288 284 279 277 275 274 274 276 278
199 204 204 203 204 202 202 206 204 202 203 195 186 193 194 188 198 208 205 205 205 204 209 213 217 217 211 209 211 219 226 225 224 227 231 237 242 242 240 238 233 233 240 241 236 235 237 240 243 244 247 250 255 258 257 253 248 245 247 248 248 252 253 249 249 252 255 261 269 273 274 275 276 278 278 281 285 286 284 282 279 276 274 274 275 278
196 201 204 202 202 201 197 197 200 202 201 195 192 193 187 182 197 210 209 208 207 206 210 213 214 213 209 206 206 208 213 218 224 228 230 234 238 239 239 234 230 234 240 237 234 235 241 249 251 248 248 251 255 260 261 253 244 241 241 240 244 249 249 248 247 247 251 259 267 271 272 275 277 278 280 283 286 288 286 284 281 277 275 275 277 279
191 191 197 197 197 196 188 184 193 199 197 196 195 188 181 184 196 204 208 208 206 207 211 214 211 206 203 206 209 209 211 216 225 229 229 235 238 236 236 232 227 233 240 241 240 241 247 255 257 252 253 257 257 254 253 246 237 234 232 232 240 244 244 243 242 243 251 260 265 266 266 270 273 275 280 284 287 287 284 283 281 279 278 279 280 282
185 181 184 191 193 189 183 185 196 201 198 194 187 184 187 190 194 200 205 207 208 210 212 213 211 206 202 204 208 211 215 218 226 231 232 236 237 231 233 235 228 231 241 246 248 249 252 257 259 258 262 270 264 255 252 245 237 232 228 230 239 246 246 246 246 248 254 258 259 259 261 265 270 275 279 281 280 280 279 279 279 279 280 282 283 285
184 187 187 191 193 191 190 196 201 198 195 193 184 183 192 195 193 199 203 202 207 214 215 214 215 214 212 214 214 215 221 225 230 235 238 240 239 237 239 240 235 236 243 249 252 254 256 257 262 267 272 275 266 258 255 251 249 245 236 237 247 253 253 252 252 254 256 256 254 253 257 264 271 275 277 276 273 273 274 275 277 278 281 283 284 286
182 194 195 196 201 203 201 202 204 199 193 194 187 184 194 198 193 197 201 200 201 210 217 218 218 218 216 221 223 221 225 230 234 239 242 244 245 244 243 241 240 240 243 247 250 253 257 259 266 273 275 273 264 256 253 252 255 252 244 247 257 259 259 256 256 257 256 254 252 251 257 266 274 278 278 276 273 273 275 276 278 280 282 283 284 285
179 196 200 203 211 214 208 201 208 206 194 191 187 183 194 200 198 198 198 200 204 205 215 222 221 218 215 220 226 226 228 232 235 239 242 246 249 246 243 241 241 241 240 242 245 251 259 262 268 272 270 269 264 258 261 262 260 255 251 258 264 262 262 261 262 263 259 254 251 251 256 263 271 277 279 279 278 277 277 278 280 282 283 283 284 285
176 194 198 195 192 199 200 195 202 201 186 184 185 183 192 200 201 200 193 193 205 202 206 219 219 216 213 215 221 226 232 235 237 240 242 247 249 244 241 241 239 241 243 243 244 249 257 262 266 270 269 268 266 259 262 265 262 259 258 263 264 261 263 265 268 267 263 258 254 254 257 261 266 273 276 279 281 280 279 278 280 281 282 282 283 285
174 190 191 184 169 167 179 182 186 187 180 184 190 188 191 197 201 198 189 185 190 190 203 218 219 213 209 210 216 221 231 236 238 240 240 244 246 243 243 241 238 243 249 249 248 248 253 256 259 264 266 267 266 260 261 264 264 262 259 259 260 261 265 269 271 269 265 261 259 259 261 262 265 269 272 276 281 282 280 277 277 278 279 282 284 285
176 186 188 191 185 180 184 185 185 185 182 187 193 191 189 192 200 200 192 187 184 188 204 215 219 218 210 210 213 217 226 233 236 240 240 244 248 247 247 245 239 243 248 249 248 246 247 251 255 259 262 265 265 262 261 263 266 266 259 257 260 263 267 270 272 272 268 264 262 261 263 265 266 268 270 273 278 282 283 278 274 275 278 282 284 283
183 188 188 197 200 196 196 192 190 191 191 192 190 187 185 184 193 204 197 190 188 196 210 211 212 219 213 212 216 219 226 232 234 239 242 246 252 251 251 247 240 239 241 242 245 246 247 249 252 256 259 262 263 259 259 263 268 266 257 256 261 265 268 271 274 275 272 269 266 264 264 266 267 269 270 271 274 281 284 280 275 275 278 282 283 282
188 192 190 195 198 200 203 197 195 199 202 201 193 188 187 181 185 199 198 193 195 203 212 211 208 211 212 213 216 219 227 232 235 238 237 237 242 249 251 246 238 236 238 242 246 248 249 249 250 253 257 260 259 257 260 264 265 262 256 257 262 265 268 272 276 277 273 271 269 267 266 266 268 270 269 267 271 280 284 280 275 276 279 281 282 283
187 189 189 193 191 194 197 194 196 199 202 204 199 196 192 183 184 191 190 193 201 206 212 213 209 210 214 216 218 220 225 232 236 239 238 236 239 247 249 243 241 240 239 242 244 245 246 246 247 251 254 256 256 257 260 259 258 259 258 258 262 264 267 272 274 272 271 272 271 268 267 266 267 268 265 264 271 281 285 280 274 274 277 280 281 283
186 186 186 188 186 180 174 177 189 194 197 200 200 197 191 187 189 190 186 191 203 210 215 215 213 214 217 220 223 225 226 230 234 236 235 232 234 240 241 238 241 242 240 240 240 241 243 244 245 248 250 252 255 257 257 253 253 257 257 258 260 262 265 269 268 269 270 272 270 269 269 268 266 265 263 266 272 278 281 279 274 273 277 280 281 283
183 182 178 178 178 170 156 162 186 197 201 199 196 192 185 188 192 189 184 193 204 211 216 215 214 218 221 221 223 226 227 229 230 230 227 223 223 226 228 230 235 238 238 238 239 240 242 243 244 245 246 248 252 254 253 250 251 254 256 258 259 260 264 267 268 271 274 273 271 272 274 273 270 266 264 266 271 274 276 276 275 274 277 279 280 281
184 184 181 179 178 169 157 162 182 197 207 202 197 194 187 188 194 190 186 196 204 206 212 214 214 219 224 224 225 229 232 232 230 229 227 224 221 223 225 228 232 235 235 235 236 238 240 240 241 242 243 244 245 246 248 249 251 253 255 257 259 261 265 268 270 273 276 275 274 275 276 276 273 268 264 265 269 273 274 273 272 273 275 277 278 280
187 190 189 184 179 168 160 164 177 190 202 205 202 200 193 191 196 193 190 198 205 204 205 210 213 219 224 225 224 226 230 232 230 229 229 228 226 225 225 227 231 234 235 235 236 238 238 237 239 241 242 241 239 240 245 248 250 252 254 255 258 262 266 268 271 275 278 277 275 274 276 278 276 271 266 265 268 271 272 271 271 273 275 277 280 283
190 190 190 186 177 166 163 171 179 187 197 204 202 197 191 191 198 199 195 198 203 203 203 206 211 218 223 224 219 215 219 225 226 225 226 227 225 222 221 224 229 233 236 238 240 239 238 237 239 242 243 242 241 242 242 244 248 251 251 253 258 264 265 264 268 275 279 276 273 275 279 280 279 276 272 270 270 272 273 274 275 277 279 281 283 285
193 190 193 191 182 171 168 176 184 188 194 199 198 194 191 193 202 205 200 199 201 200 202 206 209 215 221 222 219 214 213 218 220 220 222 224 223 222 224 228 231 234 236 237 238 237 236 237 240 242 243 242 243 242 241 244 247 250 252 256 260 261 259 260 266 273 275 273 274 279 280 280 279 277 274 273 273 273 274 276 277 278 280 283 285 287
193 192 196 196 190 182 178 182 190 194 197 201 201 202 200 200 207 212 207 204 203 202 205 208 211 217 221 224 224 223 222 223 224 223 223 224 223 224 227 230 232 234 234 232 232 234 235 237 240 240 241 243 243 241 242 245 248 253 258 258 257 256 256 261 265 265 267 272 277 279 280 279 279 276 274 274 274 274 274 275 277 280 282 284 285 286
194 198 199 197 195 191 187 191 197 200 203 206 205 207 208 204 208 212 210 206 204 204 208 212 216 222 226 228 230 229 228 229 233 234 231 223 219 224 230 232 231 232 232 229 229 231 233 235 237 238 240 241 240 238 239 240 245 257 266 260 253 252 253 256 257 260 268 274 276 277 278 279 278 276 276 275 275 275 277 278 280 282 283 284 284 284
200 206 206 201 198 195 193 197 202 202 205 207 206 210 214 211 209 210 209 205 202 203 211 218 221 226 229 232 233 233 232 233 235 236 231 223 223 232 239 237 233 231 231 231 231 232 233 235 236 238 240 240 238 237 238 238 242 255 267 258 246 241 243 253 262 267 271 272 273 274 276 276 276 276 276 277 277 279 281 282 283 283 283 282 283 284
196 206 208 202 199 200 201 202 204 203 204 206 207 210 215 215 214 216 212 205 200 202 210 219 223 226 229 231 233 236 237 237 236 235 231 227 230 238 241 238 233 232 233 234 234 234 234 235 235 237 239 240 239 239 240 241 243 250 259 259 255 256 262 268 267 265 265 267 269 271 272 272 273 275 277 279 281 283 285 285 284 283 282 282 283 285
187 198 204 201 200 205 207 207 209 209 207 206 207 211 214 213 214 218 215 208 204 205 210 218 226 229 230 230 230 232 236 236 234 231 228 225 229 234 236 235 232 231 233 235 235 235 235 234 234 236 238 239 240 240 241 244 246 250 255 261 266 270 269 263 257 255 259 262 264 267 268 270 273 276 278 281 283 285 286 286 286 285 284 285 285 287
188 194 199 199 202 207 210 211 213 213 211 210 210 213 215 215 215 218 216 210 208 209 212 219 228 231 230 228 226 228 232 234 231 228 226 225 226 229 231 231 230 230 230 231 233 234 234 233 233 234 235 236 237 237 240 244 247 249 254 259 263 264 261 257 255 257 259 260 263 267 269 272 275 277 280 283 285 286 287 287 287 287 286 287 287 288
194 194 194 197 202 206 211 215 217 217 215 214 213 213 216 217 217 220 218 211 208 211 215 222 229 230 229 227 225 225 227 228 228 227 226 226 228 229 230 230 231 231 230 231 232 232 232 230 230 231 233 235 235 235 237 240 244 249 253 255 258 259 261 264 266 267 267 268 270 272 273 275 278 281 283 285 286 286 287 287 287 287 287 287 287 288
195 193 193 196 201 206 211 215 218 218 217 216 215 215 219 220 220 223 222 215 211 213 218 224 228 227 227 228 224 222 223 224 223 221 220 223 227 230 232 232 231 229 229 230 229 228 227 226 226 228 229 230 230 230 233 237 242 247 249 251 254 258 263 268 271 273 274 274 275 276 278 280 282 284 285 284 284 284 285 286 287 286 285 285 285 286
193 193 195 199 203 208 214 217 218 216 215 217 218 218 221 222 221 224 224 219 215 215 219 225 226 224 224 227 224 221 221 223 221 218 218 221 226 229 230 230 228 225 226 228 226 223 222 223 225 226 227 228 229 231 235 237 239 242 244 248 253 258 263 267 270 271 271 272 273 276 278 280 281 282 282 281 282 283 283 283 283 282 282 283 283 286
190 192 198 203 206 210 214 217 218 215 214 216 218 220 222 223 223 224 222 219 215 214 218 224 226 224 224 225 225 223 222 222 220 216 217 221 225 227 227 226 224 221 223 226 224 220 220 221 223 225 226 228 231 233 234 235 236 239 244 250 255 260 263 264 265 266 267 268 271 273 274 276 277 278 278 279 279 280 279 279 279 280 282 283 285 287
192 193 199 206 211 214 215 217 219 218 216 217 218 219 219 220 223 224 222 217 214 213 217 222 226 227 225 226 230 230 226 224 221 217 218 222 225 226 224 223 221 221 223 224 221 218 220 221 223 224 225 227 230 231 231 233 236 241 247 253 257 260 260 261 261 263 264 266 267 269 271 273 273 273 274 275 275 276 276 278 280 282 284 286 288 290
197 200 203 206 209 212 214 216 219 219 218 219 221 223 221 219 219 221 222 219 214 214 217 221 225 227 226 226 229 229 226 225 222 218 219 221 221 221 221 219 219 220 221 220 219 218 220 221 221 222 224 225 227 228 230 233 238 245 251 255 256 257 258 259 261 262 264 265 266 267 269 270 270 270 271 272 273 276 277 279 281 284 287 290 292 291
201 207 209 208 208 210 211 215 219 219 217 218 221 224 226 225 221 219 221 219 215 214 217 219 222 226 226 224 226 226 225 225 222 217 216 217 217 217 217 217 218 218 217 217 216 217 218 219 218 219 220 222 225 228 231 236 242 248 252 253 254 255 257 259 261 262 263 264 265 266 268 269 269 270 270 272 274 276 278 279 282 287 290 292 292 291
205 211 214 212 212 214 215 218 223 224 223 224 226 226 228 230 226 220 220 221 219 218 219 219 223 228 229 226 224 225 224 221 218 214 213 212 212 214 215 216 216 215 215 215 215 215 217 217 218 218 220 223 226 229 234 239 244 248 251 252 253 255 257 259 261 262 262 263 264 266 268 269 270 270 270 272 274 276 277 280 284 289 291 291 291 290
205 211 216 217 218 220 221 223 227 228 228 231 235 234 231 231 229 224 221 223 225 226 226 225 226 230 230 228 226 225 221 212 208 209 210 210 211 213 214 214 214 213 213 214 214 215 217 218 219 221 223 225 228 231 236 241 245 248 251 253 255 256 258 261 262 261 261 261 264 267 269 270 270 270 271 273 274 275 277 280 285 289 291 291 291 289
206 209 216 222 223 223 225 227 228 227 227 229 231 230 227 225 227 227 224 223 227 231 233 231 228 227 227 224 221 220 217 209 203 204 208 210 212 213 213 213 212 212 212 213 213 215 217 219 221 223 225 227 230 233 238 242 245 249 253 255 256 258 260 262 261 260 260 262 266 268 270 270 271 271 272 273 273 274 277 282 286 290 291 291 290 289
Height
5678 5681 5685 5689 5694 5699 5704 5709 5713 5718 5723 5727 5730 5734 5738 5741 5745 5751 5755 5759 5762 5762 5765 5770 5771 5775 5779 5783 5788 5787 5784 5785 5786 5789 5791 5791 5793 5796 5799 5802 5802 5803 5805 5806 5808 5808 5811 5813 5813 5813 5814 5816 5821 5824 5826 5825 5826 5825 5822 5821 5822 5821 5821 5822 5823 5825 5827 5830 5832 5833 5835 5836 5837 5837 5838 5838 5839 5840 5841 5842 5843 5843 5843 5842 5842 5843
5673 5676 5681 5687 5693 5699 5703 5707 5710 5715 5720 5723 5726 5730 5735 5739 5743 5748 5752 5757 5761 5759 5760 5766 5770 5772 5775 5780 5785 5782 5780 5782 5784 5786 5789 5789 5790 5793 5796 5800 5800 5802 5804 5805 5805 5806 5808 5810 5811 5811 5812 5813 5816 5820 5822 5823 5824 5823 5821 5819 5819 5820 5821 5822 5823 5824 5826 5828 5830 5831 5832 5834 5835 5836 5837 5837 5838 5839 5840 5841 5842 5842 5841 5841 5841 5842
5667 5671 5678 5685 5690 5695 5700 5703 5706 5711 5716 5719 5723 5728 5731 5736 5741 5745 5748 5754 5759 5757 5757 5762 5766 5768 5772 5777 5780 5777 5777 5780 5781 5783 5785 5786 5788 5790 5794 5797 5799 5800 5801 5802 5802 5803 5806 5808 5808 5808 5809 5811 5813 5816 5819 5821 5823 5822 5819 5818 5818 5819 5820 5821 5821 5822 5824 5826 5828 5829 5831 5832 5833 5834 5835 5836 5837 5838 5839 5839 5840 5839 5839 5839 5838 5838
5663 5669 5677 5682 5686 5690 5695 5699 5702 5707 5711 5715 5720 5724 5728 5733 5737 5741 5746 5751 5755 5755 5756 5759 5762 5765 5769 5772 5773 5773 5775 5777 5778 5780 5782 5783 5786 5788 5791 5794 5796 5798 5799 5799 5799 5801 5804 5805 5805 5806 5807 5809 5811 5811 5813 5817 5821 5820 5817 5816 5817 5817 5818 5818 5819 5821 5822 5825 5827 5828 5830 5831 5831 5832 5833 5834 5835 5836 5836 5837 5838 5837 5838 5837 5836 5836
5663 5670 5676 5679 5683 5688 5692 5695 5699 5703 5707 5712 5717 5721 5725 5730 5733 5739 5745 5749 5753 5753 5755 5758 5759 5761 5765 5768 5769 5770 5773 5774 5775 5777 5779 5781 5784 5786 5788 5791 5794 5795 5796 5797 5798 5800 5802 5803 5803 5804 5805 5807 5809 5809 5810 5814 5818 5818 5814 5813 5813 5814 5815 5816 5818 5820 5821 5823 5826 5827 5828 5829 5830 5830 5831 5832 5832 5833 5833 5834 5835 5836 5836 5836 5836 5836
5660 5667 5672 5677 5681 5685 5688 5692 5696 5701 5705 5709 5714 5718 5724 5729 5732 5737 5742 5748 5750 5750 5751 5755 5757 5758 5761 5764 5766 5768 5769 5771 5772 5774 5777 5779 5782 5784 5787 5790 5791 5792 5794 5795 5797 5799 5801 5802 5802 5803 5804 5806 5807 5808 5810 5811 5812 5812 5810 5808 5810 5811 5813 5815 5816 5818 5820 5822 5824 5825 5827 5828 5828 5828 5829 5830 5830 5831 5832 5832 5833 5834 5834 5835 5834 5834
5656 5662 5668 5672 5676 5680 5684 5688 5693 5698 5701 5706 5712 5718 5723 5727 5730 5734 5740 5746 5748 5748 5749 5752 5755 5757 5758 5761 5765 5766 5766 5768 5770 5772 5775 5777 5780 5782 5785 5788 5790 5791 5792 5793 5794 5797 5798 5800 5800 5801 5803 5803 5804 5806 5806 5805 5805 5805 5804 5805 5807 5809 5812 5814 5815 5818 5819 5821 5823 5824 5826 5826 5827 5827 5828 5828 5828 5829 5830 5831 5831 5832 5832 5833 5832 5832
5652 5658 5663 5667 5672 5676 5679 5684 5689 5693 5697 5704 5712 5717 5721 5725 5729 5732 5737 5743 5747 5749 5749 5749 5752 5756 5757 5758 5762 5764 5764 5765 5767 5770 5773 5776 5778 5780 5783 5787 5789 5789 5790 5791 5792 5794 5795 5797 5797 5798 5799 5800 5800 5800 5799 5799 5801 5803 5802 5803 5806 5809 5811 5813 5814 5816 5818 5820 5822 5823 5824 5825 5826 5826 5826 5827 5827 5828 5829 5829 5830 5830 5830 5831 5831 5832
5648 5652 5658 5664 5668 5671 5676 5682 5687 5691 5696 5703 5711 5715 5719 5724 5728 5731 5735 5739 5744 5747 5746 5746 5748 5751 5754 5756 5758 5760 5762 5763 5766 5769 5772 5774 5776 5778 5781 5785 5786 5786 5787 5789 5790 5792 5793 5793 5794 5795 5796 5796 5796 5796 5796 5796 5800 5803 5803 5804 5807 5809 5810 5812 5813 5815 5817 5819 5821 5822 5823 5824 5824 5825 5825 5826 5826 5827 5828 5828 5828 5829 5829 5830 5831 5831
5645 5651 5658 5662 5665 5670 5675 5681 5685 5689 5694 5702 5709 5713 5717 5722 5727 5731 5733 5735 5740 5741 5741 5743 5743 5746 5750 5754 5755 5755 5757 5760 5764 5768 5770 5772 5774 5776 5779 5782 5783 5783 5784 5786 5788 5789 5790 5790 5792 5793 5793 5793 5794 5796 5796 5797 5801 5803 5803 5805 5808 5810 5810 5811 5812 5814 5816 5818 5820 5821 5822 5822 5822 5823 5824 5824 5824 5824 5825 5826 5826 5826 5827 5828 5828 5827
5645 5651 5655 5659 5664 5670 5675 5680 5683 5687 5693 5701 5707 5710 5715 5720 5725 5729 5731 5732 5734 5734 5737 5740 5742 5744 5747 5751 5752 5751 5754 5759 5762 5766 5768 5770 5772 5774 5777 5779 5780 5781 5782 5783 5785 5786 5787 5788 5789 5790 5790 5790 5792 5794 5794 5796 5800 5801 5802 5805 5808 5809 5809 5809 5811 5813 5815 5817 5819 5820 5821 5821 5821 5821 5822 5822 5822 5822 5822 5822 5823 5824 5824 5825 5824 5824
5643 5646 5651 5657 5663 5668 5672 5677 5681 5686 5692 5698 5702 5705 5711 5718 5722 5724 5726 5727 5727 5728 5733 5739 5741 5742 5742 5745 5748 5749 5752 5756 5759 5763 5766 5768 5770 5772 5774 5776 5777 5778 5779 5780 5782 5783 5784 5785 5786 5786 5787 5788 5791 5793 5793 5795 5797 5799 5801 5803 5804 5805 5806 5808 5809 5811 5814 5816 5817 5818 5819 5819 5819 5819 5819 5820 5820 5820 5820 5820 5821 5822 5822 5822 5822 5822
5638 5642 5648 5654 5659 5664 5668 5673 5678 5682 5687 5693 5696 5700 5707 5714 5717 5718 5720 5721 5722 5725 5731 5735 5738 5739 5738 5742 5747 5748 5749 5753 5757 5761 5764 5765 5768 5770 5771 5773 5775 5775 5777 5778 5779 5780 5782 5783 5783 5783 5785 5787 5789 5792 5793 5794 5796 5797 5799 5800 5801 5802 5804 5806 5808 5809 5811 5813 5814 5816 5816 5817 5817 5817 5817 5817 5818 5818 5818 5819 5820 5820 5820 5820 5820 5820
5634 5640 5645 5649 5655 5661 5664 5669 5673 5675 5681 5687 5690 5695 5702 5707 5710 5712 5715 5717 5720 5725 5730 5733 5736 5737 5736 5740 5745 5746 5747 5751 5756 5759 5761 5763 5766 5767 5769 5771 5772 5773 5775 5776 5777 5778 5779 5780 5781 5783 5784 5786 5788 5790 5792 5793 5794 5796 5796 5797 5799 5801 5802 5804 5806 5807 5809 5810 5812 5813 5814 5814 5815 5816 5816 5816 5816 5817 5817 5817 5819 5819 5819 5818 5818 5818
5631 5635 5640 5646 5652 5657 5662 5667 5671 5674 5679 5684 5689 5694 5700 5704 5707 5710 5714 5717 5720 5725 5728 5731 5732 5733 5736 5740 5744 5745 5747 5750 5754 5756 5758 5760 5762 5764 5767 5768 5770 5772 5774 5775 5776 5777 5778 5779 5780 5782 5783 5784 5786 5789 5791 5791 5792 5794 5796 5797 5798 5800 5801 5803 5804 5805 5806 5808 5810 5810 5811 5812 5813 5814 5814 5815 5815 5815 5816 5816 5817 5817 5816 5816 5816 5816
5631 5635 5640 5645 5650 5655 5661 5665 5669 5674 5677 5683 5690 5693 5697 5702 5706 5710 5714 5717 5720 5723 5725 5727 5729 5731 5736 5740 5742 5744 5745 5747 5750 5752 5754 5756 5759 5762 5765 5767 5770 5772 5773 5774 5775 5775 5776 5776 5777 5779 5780 5781 5783 5786 5788 5789 5790 5792 5794 5795 5796 5798 5799 5801 5802 5803 5804 5806 5807 5808 5809 5809 5810 5811 5812 5812 5813 5813 5814 5814 5814 5815 5814 5814 5814 5813
5630 5635 5640 5645 5650 5656 5661 5665 5669 5672 5676 5682 5686 5689 5694 5700 5704 5708 5712 5716 5719 5720 5722 5724 5727 5730 5734 5738 5740 5742 5743 5743 5746 5748 5751 5753 5755 5760 5764 5766 5768 5770 5771 5772 5773 5773 5773 5773 5775 5776 5778 5779 5781 5783 5785 5787 5788 5790 5791 5792 5794 5796 5797 5798 5800 5801 5803 5804 5805 5806 5806 5807 5808 5809 5809 5810 5810 5810 5811 5811 5811 5812 5812 5812 5811 5811
5631 5635 5640 5645 5650 5655 5659 5663 5667 5671 5675 5680 5683 5687 5694 5699 5702 5704 5709 5713 5715 5717 5719 5722 5726 5730 5732 5735 5738 5740 5741 5741 5742 5745 5747 5750 5753 5759 5763 5765 5767 5768 5768 5769 5770 5771 5772 5773 5774 5775 5776 5777 5779 5781 5782 5784 5786 5787 5789 5790 5792 5793 5795 5796 5798 5799 5801 5802 5803 5804 5804 5805 5806 5807 5807 5807 5808 5808 5808 5808 5809 5809 5810 5809 5809 5808
5632 5636 5641 5644 5647 5652 5656 5659 5663 5667 5672 5677 5684 5690 5693 5695 5698 5701 5704 5708 5711 5713 5716 5720 5725 5728 5730 5733 5735 5738 5739 5739 5739 5741 5744 5748 5753 5759 5762 5763 5765 5765 5765 5766 5768 5769 5770 5772 5773 5774 5775 5776 5778 5779 5780 5782 5783 5785 5787 5788 5790 5791 5792 5794 5796 5797 5799 5800 5801 5801 5802 5803 5804 5805 5805 5805 5805 5805 5806 5806 5806 5807 5807 5806 5806 5806
5633 5636 5639 5643 5646 5651 5654 5657 5660 5665 5670 5675 5682 5689 5692 5693 5696 5699 5702 5705 5708 5712 5715 5719 5722 5726 5728 5731 5733 5736 5737 5737 5737 5739 5743 5747 5752 5757 5760 5762 5763 5762 5763 5764 5766 5767 5768 5770 5771 5772 5774 5776 5777 5778 5779 5781 5782 5784 5785 5787 5788 5789 5791 5792 5794 5795 5797 5798 5799 5800 5801 5802 5802 5802 5803 5803 5803 5803 5804 5804 5804 5804 5804 5804 5803 5803
5632 5635 5637 5640 5644 5648 5651 5655 5659 5663 5668 5672 5677 5683 5687 5690 5694 5698 5701 5704 5707 5710 5714 5717 5719 5723 5726 5728 5732 5734 5735 5735 5736 5738 5742 5746 5750 5755 5758 5761 5761 5761 5762 5763 5764 5765 5767 5768 5769 5770 5773 5774 5775 5777 5779 5781 5782 5783 5784 5785 5786 5788 5789 5791 5792 5793 5794 5796 5797 5798 5799 5799 5800 5800 5800 5801 5801 5801 5801 5801 5801 5801 5801 5801 5800 5800
5629 5633 5635 5638 5641 5645 5651 5657 5660 5663 5667 5671 5675 5679 5684 5687 5691 5695 5698 5701 5704 5707 5711 5714 5717 5721 5724 5726 5729 5732 5732 5733 5734 5737 5741 5743 5748 5752 5755 5757 5759 5760 5761 5762 5762 5764 5765 5766 5767 5769 5771 5772 5773 5776 5777 5779 5781 5782 5783 5784 5785 5786 5787 5788 5790 5791 5792 5793 5794 5795 5796 5797 5798 5798 5798 5798 5799 5799 5799 5799 5798 5798 5798 5798 5797 5797
5627 5630 5633 5637 5640 5645 5652 5658 5661 5664 5667 5671 5674 5677 5682 5686 5688 5691 5696 5700 5703 5706 5709 5712 5716 5719 5722 5724 5726 5729 5730 5731 5732 5734 5737 5740 5744 5748 5750 5753 5756 5758 5759 5760 5761 5762 5763 5764 5765 5767 5769 5770 5772 5774 5776 5778 5780 5781 5781 5782 5783 5784 5785 5786 5787 5788 5789 5791 5792 5793 5794 5794 5795 5795 5795 5796 5796 5796 5796 5796 5796 5796 5795 5795 5794 5794
5624 5627 5632 5637 5641 5646 5652 5657 5662 5664 5666 5669 5673 5675 5679 5683 5687 5691 5696 5700 5703 5707 5709 5711 5713 5716 5719 5722 5724 5726 5727 5728 5729 5732 5735 5737 5740 5743 5745 5749 5753 5756 5757 5758 5759 5760 5761 5762 5764 5766 5767 5769 5771 5773 5775 5777 5778 5779 5779 5780 5781 5782 5783 5784 5785 5786 5787 5788 5789 5790 5791 5791 5791 5792 5792 5793 5793 5793 5793 5793 5793 5792 5792 5792 5791 5791
5622 5625 5630 5634 5637 5641 5646 5651 5656 5659 5660 5665 5671 5674 5677 5682 5687 5692 5696 5699 5702 5706 5708 5710 5711 5714 5716 5720 5722 5723 5724 5725 5727 5730 5733 5735 5736 5738 5741 5746 5751 5753 5754 5755 5757 5758 5760 5761 5762 5764 5765 5767 5769 5771 5773 5774 5775 5776 5777 5778 5779 5780 5781 5781 5782 5783 5784 5785 5786 5787 5787 5788 5788 5789 5789 5790 5790 5790 5790 5790 5789 5789 5789 5789 5789 5789
5621 5624 5629 5631 5632 5636 5639 5642 5647 5652 5656 5661 5667 5673 5676 5680 5686 5691 5693 5696 5699 5703 5706 5708 5710 5711 5713 5716 5719 5721 5722 5724 5726 5729 5731 5733 5734 5736 5739 5743 5748 5750 5751 5753 5754 5756 5757 5759 5760 5762 5763 5765 5767 5769 5770 5771 5773 5774 5775 5776 5777 5777 5778 5779 5779 5780 5781 5782 5783 5783 5784 5785 5785 5786 5786 5786 5787 5787 5787 5786 5786 5786 5786 5786 5786 5786
5621 5624 5628 5631 5634 5638 5642 5645 5649 5653 5657 5659 5664 5670 5675 5678 5684 5688 5691 5694 5697 5701 5704 5706 5707 5708 5710 5713 5716 5718 5720 5722 5725 5728 5729 5731 5732 5735 5737 5741 5744 5746 5747 5749 5751 5753 5755 5756 5758 5759 5761 5763 5765 5766 5768 5769 5771 5772 5773 5773 5774 5774 5775 5776 5777 5778 5778 5779 5779 5780 5781 5781 5782 5782 5783 5783 5783 5783 5783 5782 5782 5782 5782 5782 5782 5782
5621 5624 5628 5632 5636 5641 5645 5649 5653 5655 5657 5660 5664 5668 5673 5677 5682 5685 5689 5693 5696 5698 5701 5703 5704 5705 5707 5710 5712 5715 5718 5720 5723 5725 5728 5730 5731 5733 5736 5739 5741 5743 5744 5746 5748 5750 5752 5753 5755 5757 5759 5761 5762 5764 5765 5767 5769 5770 5770 5771 5771 5772 5773 5774 5774 5775 5775 5775 5776 5776 5777 5778 5778 5778 5779 5779 5780 5780 5779 5778 5778 5779 5779 5779 5779 5778
5620 5624 5628 5632 5637 5641 5645 5649 5652 5654 5658 5661 5664 5667 5672 5676 5680 5682 5687 5692 5695 5697 5699 5700 5701 5702 5704 5707 5709 5711 5715 5717 5720 5722 5725 5728 5730 5732 5734 5737 5739 5740 5742 5744 5746 5747 5749 5750 5753 5755 5757 5758 5760 5761 5764 5766 5767 5767 5768 5768 5768 5769 5770 5771 5771 5771 5772 5772 5773 5773 5774 5774 5775 5775 5775 5776 5776 5776 5776 5775 5775 5775 5775 5775 5775 5774
5619 5624 5628 5633 5637 5640 5644 5648 5651 5654 5657 5660 5663 5667 5671 5675 5678 5680 5684 5689 5692 5695 5697 5698 5699 5700 5702 5704 5706 5708 5711 5714 5717 5719 5722 5724 5727 5729 5731 5734 5736 5738 5740 5741 5743 5745 5746 5748 5750 5752 5753 5755 5757 5759 5761 5763 5764 5764 5765 5765 5765 5766 5767 5768 5768 5768 5768 5769 5769 5770 5771 5771 5771 5771 5772 5772 5773 5773 5772 5772 5771 5772 5772 5772 5772 5771
5619 5624 5628 5633 5636 5638 5642 5647 5651 5653 5656 5658 5661 5665 5669 5673 5677 5679 5682 5686 5689 5691 5694 5696 5697 5697 5698 5701 5704 5706 5709 5712 5714 5717 5719 5721 5723 5726 5728 5731 5733 5735 5737 5738 5740 5742 5743 5745 5746 5748 5750 5752 5754 5756 5757 5758 5759 5761 5761 5762 5763 5764 5764 5765 5765 5765 5765 5766 5766 5767 5767 5767 5768 5768 5768 5769 5769 5769 5769 5769 5769 5769 5769 5768 5768 5768
5619 5623 5627 5631 5634 5637 5640 5644 5649 5652 5654 5657 5660 5663 5666 5670 5674 5677 5680 5684 5686 5688 5691 5693 5694 5694 5695 5698 5702 5704 5707 5710 5713 5715 5718 5720 5722 5724 5726 5728 5730 5732 5734 5736 5737 5739 5741 5742 5743 5745 5747 5749 5752 5753 5754 5754 5755 5757 5758 5759 5760 5760 5761 5762 5763 5763 5763 5763 5764 5764 5764 5764 5764 5764 5765 5765 5765 5766 5766 5766 5766 5766 5765 5765 5765 5765
5619 5623 5627 5631 5634 5636 5639 5643 5647 5650 5652 5655 5658 5661 5664 5667 5670 5673 5677 5681 5683 5686 5688 5690 5691 5692 5693 5696 5700 5703 5705 5708 5711 5714 5716 5718 5720 5722 5724 5726 5728 5730 5732 5733 5735 5736 5738 5739 5740 5741 5744 5747 5748 5750 5750 5751 5752 5754 5755 5756 5757 5758 5759 5759 5760 5760 5761 5761 5761 5761 5761 5761 5761 5761 5761 5762 5762 5762 5763 5763 5763 5762 5762 5762 5762 5761
5619 5624 5628 5631 5633 5636 5639 5641 5644 5646 5648 5651 5655 5658 5661 5664 5667 5670 5673 5677 5680 5683 5685 5687 5688 5689 5691 5693 5697 5701 5703 5706 5709 5712 5714 5716 5718 5720 5722 5724 5726 5728 5729 5731 5732 5734 5735 5736 5738 5739 5741 5743 5745 5746 5747 5748 5749 5750 5751 5753 5754 5754 5756 5757 5757 5758 5758 5759 5759 5759 5759 5758 5758 5758 5758 5759 5759 5760 5760 5760 5760 5759 5759 5759 5758 5758
5620 5623 5627 5630 5633 5635 5637 5640 5642 5643 5645 5649 5652 5655 5658 5661 5663 5666 5670 5674 5678 5680 5682 5684 5685 5687 5688 5690 5694 5698 5701 5704 5707 5709 5711 5713 5715 5718 5720 5722 5724 5725 5727 5729 5730 5731 5733 5734 5736 5737 5739 5740 5742 5743 5744 5745 5746 5746 5748 5750 5751 5751 5753 5754 5755 5755 5755 5756 5756 5756 5756 5756 5756 5756 5756 5756 5757 5757 5757 5757 5757 5757 5756 5756 5755 5755
5621 5623 5626 5630 5633 5635 5636 5638 5639 5641 5644 5647 5651 5654 5657 5660 5662 5664 5668 5672 5676 5678 5680 5681 5683 5683 5684 5687 5691 5696 5699 5702 5704 5707 5709 5712 5714 5715 5717 5719 5721 5723 5725 5726 5728 5729 5731 5732 5734 5735 5737 5738 5740 5741 5742 5743 5743 5744 5745 5747 5748 5750 5751 5751 5752 5753 5753 5753 5754 5754 5753 5753 5753 5753 5754 5754 5755 5754 5754 5754 5754 5754 5753 5753 5752 5751
5620 5622 5625 5629 5632 5634 5635 5636 5638 5641 5644 5647 5650 5652 5655 5657 5659 5661 5665 5669 5673 5676 5677 5678 5679 5681 5682 5685 5689 5693 5697 5700 5702 5705 5708 5711 5712 5713 5715 5717 5719 5720 5722 5724 5725 5727 5728 5730 5731 5733 5734 5736 5738 5739 5740 5740 5741 5741 5742 5744 5746 5748 5749 5749 5750 5751 5751 5751 5751 5751 5751 5751 5751 5751 5751 5752 5751 5751 5751 5751 5751 5750 5750 5749 5749 5748
5619 5621 5624 5628 5631 5633 5634 5635 5638 5641 5644 5646 5649 5651 5653 5656 5657 5659 5662 5666 5669 5672 5674 5674 5675 5678 5680 5683 5687 5690 5694 5696 5699 5703 5707 5709 5710 5712 5713 5715 5716 5718 5719 5721 5723 5724 5726 5727 5729 5731 5732 5734 5735 5736 5737 5738 5739 5739 5740 5742 5743 5745 5747 5747 5748 5748 5749 5749 5749 5749 5749 5749 5749 5749 5749 5748 5748 5748 5748 5747 5747 5747 5746 5746 5745 5744
5618 5620 5622 5625 5629 5630 5632 5634 5636 5639 5642 5645 5647 5649 5651 5654 5655 5656 5659 5663 5667 5669 5669 5670 5671 5674 5677 5681 5685 5688 5691 5694 5697 5701 5704 5707 5708 5709 5711 5712 5714 5716 5717 5719 5720 5722 5723 5725 5727 5728 5730 5731 5733 5734 5735 5736 5737 5738 5739 5740 5741 5743 5744 5745 5745 5745 5746 5746 5746 5746 5746 5746 5746 5746 5746 5745 5745 5745 5745 5744 5744 5743 5743 5742 5741 5740
5615 5618 5620 5623 5626 5628 5630 5633 5635 5637 5640 5643 5645 5647 5649 5651 5652 5653 5656 5659 5663 5665 5665 5666 5668 5670 5674 5679 5682 5685 5688 5692 5695 5698 5701 5703 5704 5706 5707 5709 5711 5713 5714 5716 5717 5719 5721 5722 5724 5726 5728 5729 5730 5732 5733 5734 5735 5736 5737 5738 5738 5739 5741 5742 5742 5743 5743 5744 5744 5744 5744 5743 5743 5743 5743 5742 5742 5742 5741 5741 5740 5740 5739 5738 5738 5737
5613 5616 5619 5622 5624 5626 5629 5631 5632 5635 5638 5641 5643 5645 5647 5648 5650 5650 5652 5656 5660 5661 5662 5663 5665 5667 5672 5676 5680 5683 5686 5689 5691 5693 5696 5698 5700 5702 5704 5706 5708 5709 5711 5713 5715 5716 5718 5720 5722 5723 5725 5726 5728 5730 5731 5732 5733 5734 5735 5736 5736 5737 5738 5739 5740 5740 5741 5741 5741 5741 5741 5740 5740 5740 5740 5739 5739 5738 5738 5737 5737 5736 5736 5735 5735 5734
5612 5615 5618 5621 5623 5624 5627 5628 5630 5633 5637 5639 5642 5644 5645 5646 5647 5648 5651 5655 5657 5658 5660 5661 5662 5666 5670 5673 5677 5680 5682 5684 5686 5689 5692 5694 5697 5698 5701 5703 5705 5707 5709 5711 5712 5714 5716 5717 5719 5721 5722 5724 5726 5727 5728 5729 5731 5732 5733 5734 5734 5735 5735 5736 5737 5737 5737 5738 5737 5737 5737 5737 5737 5737 5736 5736 5736 5736 5735 5735 5734 5734 5733 5733 5732 5731
5613 5615 5617 5619 5621 5623 5625 5626 5629 5632 5635 5637 5640 5642 5643 5644 5645 5647 5649 5652 5654 5656 5658 5659 5661 5664 5667 5670 5673 5675 5677 5679 5683 5686 5689 5691 5693 5695 5697 5700 5702 5704 5706 5708 5709 5711 5713 5715 5717 5718 5719 5721 5723 5725 5726 5727 5728 5729 5730 5731 5732 5732 5733 5733 5734 5734 5734 5734 5734 5734 5734 5734 5734 5734 5734 5734 5734 5733 5733 5732 5732 5732 5731 5730 5730 5729
5613 5615 5616 5618 5620 5622 5624 5626 5628 5631 5633 5635 5637 5639 5640 5642 5644 5645 5647 5650 5652 5655 5655 5657 5659 5661 5663 5666 5669 5671 5673 5677 5680 5683 5685 5687 5689 5692 5694 5696 5699 5702 5703 5705 5707 5709 5711 5713 5714 5715 5717 5719 5720 5722 5723 5724 5725 5726 5727 5728 5729 5730 5730 5731 5731 5731 5731 5731 5731 5731 5731 5731 5731 5731 5731 5731 5731 5731 5731 5731 5730 5729 5729 5728 5727 5726
5611 5613 5615 5617 5619 5621 5623 5624 5627 5629 5631 5633 5634 5636 5638 5640 5642 5643 5645 5647 5650 5652 5654 5655 5656 5658 5661 5664 5666 5668 5671 5674 5677 5680 5682 5684 5685 5688 5691 5693 5696 5699 5700 5701 5704 5706 5708 5710 5711 5713 5715 5716 5718 5719 5720 5721 5722 5723 5725 5726 5726 5727 5728 5728 5728 5729 5729 5729 5729 5729 5729 5729 5729 5729 5729 5729 5729 5729 5729 5728 5728 5727 5726 5725 5724 5723
5610 5612 5614 5616 5618 5619 5621 5624 5626 5627 5629 5631 5632 5634 5636 5638 5639 5641 5643 5645 5647 5649 5651 5652 5653 5655 5659 5662 5664 5667 5670 5672 5674 5677 5679 5680 5682 5685 5688 5690 5693 5695 5696 5699 5702 5704 5705 5707 5709 5710 5712 5714 5715 5716 5717 5718 5720 5721 5722 5723 5724 5724 5725 5725 5725 5726 5726 5726 5726 5726 5726 5727 5727 5727 5727 5727 5727 5726 5726 5725 5725 5724 5723 5722 5722 5721
5610 5612 5613 5614 5616 5618 5621 5623 5624 5626 5628 5630 5632 5633 5634 5635 5637 5638 5640 5642 5644 5647 5648 5650 5651 5654 5657 5659 5662 5664 5667 5669 5672 5674 5676 5678 5680 5682 5685 5687 5689 5691 5694 5697 5699 5701 5702 5704 5706 5708 5710 5711 5712 5713 5714 5716 5717 5718 5719 5720 5721 5722 5722 5722 5723 5723 5723 5723 5723 5724 5724 5724 5724 5724 5724 5724 5724 5723 5723 5723 5722 5721 5720 5720 5719 5718
5609 5610 5611 5613 5615 5616 5619 5621 5622 5623 5625 5628 5630 5632 5634 5635 5636 5637 5638 5640 5642 5644 5646 5648 5649 5652 5655 5657 5660 5662 5664 5666 5669 5671 5673 5675 5678 5680 5682 5684 5686 5688 5691 5694 5696 5698 5700 5702 5704 5706 5707 5708 5709 5711 5712 5713 5714 5716 5717 5717 5718 5719 5719 5719 5720 5720 5720 5720 5721 5721 5721 5721 5721 5721 5721 5721 5721 5721 5720 5720 5719 5718 5718 5717 5716 5715
5608 5609 5610 5612 5614 5615 5617 5619 5620 5622 5624 5626 5629 5631 5632 5634 5635 5636 5637 5638 5640 5642 5644 5646 5648 5649 5652 5655 5658 5660 5662 5664 5667 5669 5671 5673 5675 5677 5679 5681 5684 5686 5689 5691 5694 5696 5698 5699 5701 5703 5704 5705 5706 5708 5709 5710 5712 5713 5714 5714 5715 5716 5716 5716 5717 5717 5717 5718 5718 5718 5718 5718 5718 5719 5718 5718 5718 5718 5717 5717 5716 5715 5715 5714 5713 5713
5607 5608 5609 5611 5613 5615 5617 5618 5619 5621 5623 5625 5627 5628 5630 5632 5633 5635 5636 5637 5639 5640 5642 5645 5646 5648 5650 5653 5656 5658 5660 5661 5664 5666 5669 5671 5673 5674 5676 5679 5682 5684 5687 5689 5691 5693 5695 5697 5699 5700 5701 5703 5704 5705 5706 5708 5709 5710 5710 5711 5712 5712 5713 5713 5714 5714 5714 5715 5715 5715 5715 5715 5716 5716 5716 5715 5715 5715 5715 5714 5713 5713 5712 5711 5711 5710
5606 5607 5609 5610 5612 5614 5615 5616 5618 5619 5621 5623 5625 5626 5628 5630 5632 5633 5635 5636 5637 5638 5640 5643 5645 5647 5649 5651 5654 5656 5657 5659 5661 5663 5666 5668 5670 5672 5674 5676 5679 5681 5684 5686 5688 5691 5693 5695 5696 5697 5699 5700 5701 5703 5704 5705 5706 5707 5707 5708 5708 5709 5709 5710 5710 5710 5711 5712 5712 5712 5712 5713 5713 5713 5713 5713 5712 5712 5712 5711 5710 5710 5709 5708 5707 5706